This is the latest recevied weather packets stored in our database for station/object OE-11204. If no packets are shown the sender has not sent any weather packets the latest 10 day(s).
| Time | Temp. | Humidity | Pressure | Rain* | Wind** | Luminosity | Snow |
|---|---|---|---|---|---|---|---|
| 1788048687 | 16.67° C | 93% | 1018.3 hPa | 0.76 mm | - | 0 W/m² | - |
| 1788048315 | 16.67° C | 93% | 1018.3 hPa | 1.02 mm | - | 0 W/m² | - |
| 1788047715 | 16.67° C | 91% | 1018.3 hPa | 1.02 mm | - | 0 W/m² | - |
| 1788046887 | 17.22° C | 91% | 1018.1 hPa | 1.02 mm | - | 0 W/m² | - |
| 1788046515 | 17.22° C | 89% | 1018.1 hPa | 1.02 mm | - | 0 W/m² | - |
| 1788045914 | 17.22° C | 90% | 1018.2 hPa | 1.02 mm | - | 0 W/m² | - |
| 1788045315 | 17.22° C | 90% | 1018.1 hPa | 0.51 mm | - | 0 W/m² | - |
| 1788044715 | 17.78° C | 88% | 1017.9 hPa | 0.51 mm | - | 0 W/m² | - |
| 1788044115 | 17.78° C | 89% | 1017.7 hPa | 0.25 mm | - | 0 W/m² | - |
| 1788043288 | 17.78° C | 84% | 1017.5 hPa | 0 mm | - | 0 W/m² | - |
| 1788042914 | 17.78° C | 83% | 1017.6 hPa | 0 mm | - | 0 W/m² | - |
| 1788042314 | 17.78° C | 83% | 1017.3 hPa | 0 mm | - | 0 W/m² | - |
| 1788041488 | 17.78° C | 83% | 1017.5 hPa | 0 mm | - | 0 W/m² | - |
| 1788041115 | 17.78° C | 81% | 1017.3 hPa | 0 mm | - | 0 W/m² | - |
| 1788040515 | 17.78° C | 83% | 1017.3 hPa | 0 mm | - | 0 W/m² | - |
| 1788039688 | 17.78° C | 82% | 1017.2 hPa | 0 mm | - | 0 W/m² | - |
| 1788039315 | 17.78° C | 82% | 1017.2 hPa | 0 mm | - | 0 W/m² | - |
| 1788038715 | 17.78° C | 82% | 1017.2 hPa | 0 mm | - | 0 W/m² | - |
| 1788037888 | 17.78° C | 81% | 1017.2 hPa | 0 mm | - | 0 W/m² | - |
| 1788037514 | 17.78° C | 80% | 1017.2 hPa | 0 mm | - | 0 W/m² | - |
| 1788036915 | 17.78° C | 81% | 1017.1 hPa | 0 mm | - | 0 W/m² | - |
| 1788036088 | 17.78° C | 81% | 1017 hPa | 0 mm | - | 0 W/m² | - |
| 1788035714 | 17.78° C | 80% | 1017 hPa | 0 mm | - | 0 W/m² | - |
| 1788035115 | 18.33° C | 79% | 1016.8 hPa | 0 mm | - | 0 W/m² | - |
| 1788034288 | 18.33° C | 78% | 1016.8 hPa | 0 mm | - | 0 W/m² | - |
* Rain latest hour (hover to see other rain measurements)
** Current wind speed in m/s (hover to see current wind gust speed)